OpenBCM V2.0.2 (Linux)

Packet Radio Mailbox

IZ3LSV

[San Dona' di P. JN]

 Login: GUEST





  
CX2SA  > KEP      14.06.08 01:03l 74 Lines 2985 Bytes #999 (0) @ WW
BID : ARLK045
Read: GUEST
Subj: ARLK045 Keplerian data
Path: IZ3LSV<I0TVL<IK1ZNW<IR1UAW<IK2QCA<I4UKI<IK6ZDE<VE2PKT<CX2SA
Sent: 080613/2246Z @:CX2SA.LAV.URY.SA #:9971 [Minas] FBB7.00e $:ARLK045
From: CX2SA@CX2SA.LAV.URY.SA
To  : KEP@ARL


ZCZC SK45
QST de W1AW  
Keplerian Bulletin 45  ARLK045
From ARRL Headquarters
Newington, CT  June 13, 2008
To all radio amateurs 

SB KEP ARL ARLK045
ARLK045 Keplerian data

Special thanks to AMSAT-NA (AMSAT.ORG) for the following Keplerian
data.

Decode 2-line elsets with the following key:
1 AAAAAU 00  0  0 BBBBB.BBBBBBBB  .CCCCCCCC  00000-0  00000-0 0  DDDZ
2 AAAAA EEE.EEEE FFF.FFFF GGGGGGG HHH.HHHH III.IIII JJ.JJJJJJJJKKKKKZ
KEY: A-CATALOGNUM B-EPOCHTIME C-DECAY D-ELSETNUM E-INCLINATION F-RAAN
G-ECCENTRICITY H-ARGPERIGEE I-MNANOM J-MNMOTION K-ORBITNUM Z-CHECKSUM

AO-07
1 07530U 74089B   08163.70711665 -.00000027  00000-0  10000-3 0 02014
2 07530 101.4660 195.3879 0011569 273.5729 086.4015 12.53573841536292 
UO-11
1 14781U 84021B   08163.84331037 -.00000243  00000-0 -25127-4 0 06947
2 14781 098.1528 197.7970 0010193 090.7985 269.4393 14.79645720303061
FO-29
1 24278U 96046B   08163.79666750  .00000042  00000-0  81079-4 0 08008
2 24278 098.5852 080.7912 0350001 229.4327 127.5856 13.52938108583669
AO-40
1 26609U 00072B   08163.23680576 -.00000066  00000-0  10000-3 0   759
2 26609 007.5807 078.1579 7915374 090.2424 349.6788 01.25583634 34960
VO-52
1 28650U 05017B   08164.88101300 -.00000066  00000-0 -17868-5 0  9544
2 28650 097.7901 231.6101 0027807 152.6078 207.6643 14.81471116167964
AO-16
1 20439U 90005D   08164.87786119  .00000009  00000-0  18692-4 0  3430
2 20439 098.2295 145.1612 0010533 184.9105 175.1966 14.31795740960309
AO-27
1 22825U 93061C   08163.67011409 -.00000029  00000-0  50078-5 0  9902
2 22825 098.3833 123.8979 0007469 277.1895 082.8429 14.29240399766981
IO-26
1 22826U 93061D   08163.86510828 -.00000004  00000-0  15004-4 0 06979
2 22826 098.3760 124.9985 0008062 275.3778 084.6481 14.29489442767107
PO-28
1 22829U 93061G   08163.85422792 -.00000044  00000-0 -95498-6 0 09675
2 22829 098.3638 126.0933 0008799 244.1184 115.9097 14.30190636767367
GO-32
1 25397U 98043D   08163.76721333  .00000113  00000-0  67997-4 0  6208
2 25397 098.3631 199.1980 0000361 219.2151 140.8998 14.23145043515441
NO-44
1 26931U 01043C   08163.82848947 -.00000104  00000-0 -84701-5 0 09023
2 26931 067.0522 298.4601 0006735 275.1541 084.8802 14.29524244349644 
SO-50
1 27607U 02058C   08163.70493639 -.00000061  00000-0  12914-4 0 06262
2 27607 064.5580 070.2890 0085670 280.3356 078.8123 14.71361388294164
CO-55
1 27844U 03031E   08163.59079746  .00000019  00000-0  28960-4 0 03260
2 27844 098.7146 171.9353 0010553 127.8403 232.3724 14.20583045256648
AO-51
1 28375U 04025K   08163.56177424  .00000020  00000-0  18508-4 0 01237
2 28375 098.0709 188.4489 0083477 169.2598 191.0399 14.40610535207595
ISS
1 25544U 98067A   08163.84755287  .00000206  00000-0  53030-5 0 06489
2 25544 051.6402 043.9198 0005684 321.9601 133.8438 15.76737382547688

Keplerian bulletins are transmitted twice weekly from W1AW.  The
next scheduled transmission of these data will be Tuesday, June 17,
2008, at 2230z on Baudot and AMTOR.
NNNN


Read previous mail | Read next mail


 05.05.2026 01:50:44lGo back Go up